User: anonymous   Login
Location: New Greens
(51.7702°N, 0.3379°W)
Time: 05:56:02
(UTC+00:00)
Language:

Envisat - Orbit

View from above orbital plane
View from above orbital plane
View from above satellite
View from above satellite

Ground track
Ground track

The orbit data is extracted from the following two-line orbital elements,

1 27386U 02009A   19053.87984826 -.00000008  00000-0  10801-4 0  9990
2 27386  98.1605  80.7640 0001198  98.1161 318.3478 14.37941880889551
Epoch (UTC): 22 February 2019 21:06:58
Eccentricity: 0.0001198
inclination: 98.1605°
perigee height: 764 km
apogee height: 766 km
right ascension of ascending node: 80.7640°
argument of perigee: 98.1161°
revolutions per day: 14.37941880
mean anomaly at epoch: 318.3478°
orbit number at epoch: 88955

The dashed part of the orbit path shows where the satellite is in the earth's shadow,  

DLR